FALCON 9 DEB (45423 NORAD) Tracking and Keplerian Element Data

This shows tracking and keplerian element data for the satellite.

Feedback or suggestion? Click here.




ElementValue
Catalog45423
NameFALCON 9 DEB
Epoch Orbit509
Epoch Day106.19937293
Epoch Year2020
RAAN112.3193
Inclination52.9887
Eccentricity0.0010779
Argument of Perigee143.6993
Mean Anonmoly216.4787
Mean Motion16.42835429
Decay Rate0.06444921
L11 45423U 20019BR 20106.19937293 .06444921 12324-4 26295-3 0 9995
L22 45423 52.9887 112.3193 0010779 143.6993 216.4787 16.42835429 5091

Live tracking and technical data element details for FALCON 9 DEB (NORAD 45423). FALCON 9 DEB can be tracked NOW for your location showing map with azimuth and elevation plus other details from your city location.

Track the satellite on the map from your city or location and see movement details for azimuth, elevation, latitude, longitude, range, height, and movement on the map or in text.







IsCatalogInMostPopularTable: catalog: 45423, numindb: 26
Update: records affected: 1



GetName: 45423 FALCON 9 DEB

Hit Count: updated at: Mon, 13 Jul 2020 04:15:35 GMT